Time,TemperatureF,DewpointF,PressureIn,WindDirection,WindDirectionDegrees,WindSpeedMPH,WindSpeedGustMPH,Humidity,HourlyPrecipIn,Conditions,Clouds,dailyrainin,SolarRadiationWatts/m^2,SoftwareType,DateUTC
2013-03-10 00:01:00,47.7,46.9,29.53,WNW,292,0.0,0.0,97,0.02,RA,,0.02,0.0,WeatherDisplay:10.37,2013-03-09 23:01:00,
2013-03-10 00:06:00,47.7,46.9,29.53,WNW,292,0.0,0.0,97,0.02,RA,,0.02,0.0,WeatherDisplay:10.37,2013-03-09 23:06:00,
2013-03-10 00:11:00,47.5,46.7,29.56,WNW,292,0.0,0.0,97,0.02,CLR,,0.02,0.0,WeatherDisplay:10.37,2013-03-09 23:11:00,
2013-03-10 00:16:00,47.5,46.7,29.56,WNW,292,0.0,0.0,97,0.02,RA,,0.02,0.0,WeatherDisplay:10.37,2013-03-09 23:16:00,
2013-03-10 00:21:00,47.7,46.9,29.56,WNW,292,0.0,0.0,97,0.02,RA,,0.02,0.0,WeatherDisplay:10.37,2013-03-09 23:21:00,
2013-03-10 00:26:00,47.7,46.9,29.56,WNW,292,0.0,0.0,97,0.02,RA,,0.03,0.0,WeatherDisplay:10.37,2013-03-09 23:26:00,
2013-03-10 00:31:00,47.5,46.9,29.56,WNW,292,0.0,0.0,98,0.02,RA,,0.03,0.0,WeatherDisplay:10.37,2013-03-09 23:31:00,
2013-03-10 00:36:00,47.5,46.9,29.56,WNW,292,0.0,0.0,98,0.02,RA,,0.03,0.0,WeatherDisplay:10.37,2013-03-09 23:36:00,
2013-03-10 00:41:00,47.5,46.9,29.56,WNW,292,0.0,0.0,98,0.02,RA,,0.04,0.0,WeatherDisplay:10.37,2013-03-09 23:41:00,
2013-03-10 00:46:00,47.5,46.9,29.56,WNW,292,0.0,0.0,98,0.02,RA,,0.04,0.0,WeatherDisplay:10.37,2013-03-09 23:46:00,
2013-03-10 00:51:00,47.5,46.9,29.56,WNW,292,0.0,0.0,98,0.03,RA,,0.05,0.0,WeatherDisplay:10.37,2013-03-09 23:51:00,
2013-03-10 00:56:00,47.5,46.9,29.56,WNW,292,0.0,0.0,98,0.03,RA,,0.05,0.0,WeatherDisplay:10.37,2013-03-09 23:56:00,
2013-03-10 01:01:00,47.5,46.9,29.56,WNW,292,0.0,0.0,98,0.03,RA,,0.05,0.0,WeatherDisplay:10.37,2013-03-10 00:01:00,
2013-03-10 01:06:00,47.5,46.9,29.56,WNW,292,0.0,0.0,98,0.03,,,0.05,0.0,WeatherDisplay:10.37,2013-03-10 00:06:00,
2013-03-10 01:11:00,47.5,46.9,29.56,ENE,68,0.0,0.0,98,0.03,RA,,0.05,0.0,WeatherDisplay:10.37,2013-03-10 00:11:00,
2013-03-10 01:16:00,47.3,46.8,29.56,ENE,68,0.0,0.0,98,0.03,RA,,0.05,0.0,WeatherDisplay:10.37,2013-03-10 00:16:00,
2013-03-10 01:21:00,47.3,46.8,29.56,ENE,68,0.0,0.0,98,0.03,RA,,0.06,0.0,WeatherDisplay:10.37,2013-03-10 00:21:00,
2013-03-10 01:26:00,47.3,46.8,29.56,ENE,68,0.0,0.0,98,0.03,RA,,0.06,0.0,WeatherDisplay:10.37,2013-03-10 00:26:00,
2013-03-10 01:31:00,47.3,46.8,29.56,ENE,68,0.0,0.0,98,0.03,RA,,0.06,0.0,WeatherDisplay:10.37,2013-03-10 00:31:00,
2013-03-10 01:36:00,47.3,46.8,29.53,ENE,68,0.0,0.0,98,0.03,RA,,0.07,0.0,WeatherDisplay:10.37,2013-03-10 00:36:00,
2013-03-10 01:41:00,47.3,46.8,29.53,ENE,68,0.0,0.0,98,0.03,RA,,0.07,0.0,WeatherDisplay:10.37,2013-03-10 00:41:00,
2013-03-10 01:46:00,47.3,46.8,29.53,ENE,68,0.0,0.0,98,0.03,RA,,0.07,0.0,WeatherDisplay:10.37,2013-03-10 00:46:00,
2013-03-10 01:51:00,47.3,46.8,29.56,ENE,68,0.0,0.0,98,0.03,RA,,0.07,0.0,WeatherDisplay:10.37,2013-03-10 00:51:00,
2013-03-10 01:56:00,47.3,46.8,29.56,ENE,68,0.0,0.0,98,0.02,RA,,0.07,0.0,WeatherDisplay:10.37,2013-03-10 00:56:00,
2013-03-10 02:01:00,47.3,46.8,29.56,ENE,68,0.0,0.0,98,0.03,RA,,0.08,0.0,WeatherDisplay:10.37,2013-03-10 01:01:00,
2013-03-10 02:06:00,47.3,46.8,29.53,ENE,68,0.0,0.0,98,0.03,RA,,0.08,0.0,WeatherDisplay:10.37,2013-03-10 01:06:00,
2013-03-10 02:11:00,47.3,46.8,29.53,ENE,68,0.0,0.0,98,0.03,CLR,,0.08,0.0,WeatherDisplay:10.37,2013-03-10 01:11:00,
2013-03-10 02:16:00,47.3,46.8,29.53,ENE,68,0.0,0.0,98,0.03,CLR,,0.08,0.0,WeatherDisplay:10.37,2013-03-10 01:16:00,
2013-03-10 02:21:00,47.3,46.8,29.53,ENE,68,0.0,0.0,98,0.02,CLR,,0.08,0.0,WeatherDisplay:10.37,2013-03-10 01:21:00,
2013-03-10 02:26:00,47.3,46.8,29.53,ENE,68,0.0,0.0,98,0.02,RA,,0.08,0.0,WeatherDisplay:10.37,2013-03-10 01:26:00,
2013-03-10 02:31:00,47.3,46.8,29.53,ENE,68,0.0,0.0,98,0.02,RA,,0.08,0.0,WeatherDisplay:10.37,2013-03-10 01:31:00,
2013-03-10 02:36:00,47.3,46.8,29.53,ENE,68,0.0,0.0,98,0.02,CLR,,0.08,0.0,WeatherDisplay:10.37,2013-03-10 01:36:00,
2013-03-10 02:41:00,47.1,46.6,29.53,ENE,68,0.0,0.0,98,0.02,CLR,,0.08,0.0,WeatherDisplay:10.37,2013-03-10 01:41:00,
2013-03-10 02:46:00,47.1,46.6,29.53,ENE,68,0.0,0.0,98,0.01,CLR,,0.08,0.0,WeatherDisplay:10.37,2013-03-10 01:46:00,
2013-03-10 02:51:00,47.1,46.6,29.53,ENE,68,0.0,0.0,98,0.01,CLR,,0.08,0.0,WeatherDisplay:10.37,2013-03-10 01:51:00,
2013-03-10 02:56:00,47.1,46.6,29.53,ENE,68,0.0,0.0,98,0.01,CLR,,0.08,0.0,WeatherDisplay:10.37,2013-03-10 01:56:00,
2013-03-10 03:01:00,46.9,46.4,29.53,ENE,68,0.0,0.0,98,0.00,CLR,,0.08,0.0,WeatherDisplay:10.37,2013-03-10 02:01:00,
2013-03-10 03:06:00,46.9,46.4,29.53,ENE,68,0.0,0.0,98,0.00,CLR,,0.08,0.0,WeatherDisplay:10.37,2013-03-10 02:06:00,
2013-03-10 03:11:00,46.9,46.4,29.53,ENE,68,0.0,0.0,98,0.00,CLR,,0.08,0.0,WeatherDisplay:10.37,2013-03-10 02:11:00,
2013-03-10 03:17:00,46.9,46.4,29.53,ENE,68,0.0,0.0,98,0.00,CLR,,0.08,0.0,WeatherDisplay:10.37,2013-03-10 02:17:00,
2013-03-10 03:22:00,46.9,46.4,29.53,ENE,68,0.0,0.0,98,0.01,RA,,0.09,0.0,WeatherDisplay:10.37,2013-03-10 02:22:00,
2013-03-10 03:27:00,46.9,46.4,29.53,ENE,68,0.0,0.0,98,0.00,RA,,0.09,0.0,WeatherDisplay:10.37,2013-03-10 02:27:00,
2013-03-10 03:32:00,47.1,46.6,29.53,ENE,68,0.0,0.0,98,0.00,,,0.09,0.0,WeatherDisplay:10.37,2013-03-10 02:32:00,
2013-03-10 03:37:00,47.1,46.6,29.53,ENE,68,0.0,0.0,98,0.00,CLR,,0.09,0.0,WeatherDisplay:10.37,2013-03-10 02:37:00,
2013-03-10 03:42:00,47.1,46.6,29.50,ENE,68,0.0,0.0,98,0.00,CLR,,0.09,0.0,WeatherDisplay:10.37,2013-03-10 02:42:00,
2013-03-10 03:47:00,47.1,46.6,29.50,ENE,68,0.0,0.0,98,0.00,CLR,,0.09,0.0,WeatherDisplay:10.37,2013-03-10 02:47:00,
2013-03-10 03:52:00,47.1,46.6,29.53,ENE,68,0.0,0.0,98,0.00,CLR,,0.09,0.0,WeatherDisplay:10.37,2013-03-10 02:52:00,
2013-03-10 03:57:00,47.1,46.6,29.53,ENE,68,0.0,0.0,98,0.00,CLR,,0.09,0.0,WeatherDisplay:10.37,2013-03-10 02:57:00,
2013-03-10 04:02:00,47.1,46.6,29.53,NE,45,0.0,0.0,98,0.01,RA,,0.09,0.0,WeatherDisplay:10.37,2013-03-10 03:02:00,
2013-03-10 04:07:00,47.1,46.6,29.53,East,90,0.0,0.0,98,0.01,RA,,0.09,0.0,WeatherDisplay:10.37,2013-03-10 03:07:00,
2013-03-10 04:12:00,47.1,46.6,29.50,East,90,0.0,0.0,98,0.01,CLR,,0.09,0.0,WeatherDisplay:10.37,2013-03-10 03:12:00,
2013-03-10 04:17:00,47.1,46.6,29.50,ENE,68,0.0,0.0,98,0.01,CLR,,0.09,0.0,WeatherDisplay:10.37,2013-03-10 03:17:00,
2013-03-10 04:22:00,47.1,46.6,29.47,East,90,0.0,0.0,98,0.00,CLR,,0.09,0.0,WeatherDisplay:10.37,2013-03-10 03:22:00,
2013-03-10 04:27:00,47.1,46.6,29.47,ESE,112,0.0,0.0,98,0.00,CLR,,0.09,0.0,WeatherDisplay:10.37,2013-03-10 03:27:00,
2013-03-10 04:32:00,47.1,46.6,29.47,ESE,112,0.0,0.0,98,0.00,CLR,,0.09,0.0,WeatherDisplay:10.37,2013-03-10 03:32:00,
2013-03-10 04:37:00,47.1,46.6,29.53,NE,45,0.0,0.0,98,0.00,CLR,,0.09,0.0,WeatherDisplay:10.37,2013-03-10 03:37:00,
2013-03-10 04:42:00,47.1,46.6,29.53,NE,45,0.0,0.0,98,0.00,CLR,,0.09,0.0,WeatherDisplay:10.37,2013-03-10 03:42:00,
2013-03-10 04:47:00,47.1,46.6,29.53,NNW,338,0.0,0.0,98,0.00,CLR,,0.09,0.0,WeatherDisplay:10.37,2013-03-10 03:47:00,
2013-03-10 04:52:00,47.1,46.6,29.50,NNE,22,0.0,0.0,98,0.00,CLR,,0.09,0.0,WeatherDisplay:10.37,2013-03-10 03:52:00,
2013-03-10 04:57:00,47.1,46.6,29.50,East,90,0.0,0.0,98,0.00,CLR,,0.09,0.0,WeatherDisplay:10.37,2013-03-10 03:57:00,
2013-03-10 05:02:00,47.1,46.6,29.50,ENE,68,0.0,0.0,98,0.00,CLR,,0.09,0.0,WeatherDisplay:10.37,2013-03-10 04:02:00,
2013-03-10 05:07:00,47.1,46.6,29.53,NNE,22,1.2,1.2,98,0.00,CLR,,0.09,0.0,WeatherDisplay:10.37,2013-03-10 04:07:00,
2013-03-10 05:12:00,47.1,46.6,29.53,NNE,22,1.2,0.0,98,0.00,CLR,,0.09,0.0,WeatherDisplay:10.37,2013-03-10 04:12:00,
2013-03-10 05:17:00,47.1,46.6,29.53,NNW,338,0.0,0.0,98,0.00,CLR,,0.09,0.0,WeatherDisplay:10.37,2013-03-10 04:17:00,
2013-03-10 05:22:00,47.1,46.6,29.53,NNW,338,0.0,0.0,98,0.00,CLR,,0.09,0.0,WeatherDisplay:10.37,2013-03-10 04:22:00,
2013-03-10 05:27:00,47.1,46.6,29.53,ENE,68,0.0,0.0,98,0.00,CLR,,0.09,0.0,WeatherDisplay:10.37,2013-03-10 04:27:00,
2013-03-10 05:32:00,47.1,46.6,29.53,ENE,68,0.0,0.0,98,0.00,CLR,,0.09,0.0,WeatherDisplay:10.37,2013-03-10 04:32:00,
2013-03-10 05:37:00,47.1,46.6,29.50,NNE,22,0.0,0.0,98,0.00,CLR,,0.09,0.0,WeatherDisplay:10.37,2013-03-10 04:37:00,
2013-03-10 05:42:00,47.1,46.6,29.50,East,90,0.0,0.0,98,0.00,CLR,,0.09,0.0,WeatherDisplay:10.37,2013-03-10 04:42:00,
2013-03-10 05:47:00,47.1,46.6,29.50,NE,45,0.0,0.0,98,0.00,CLR,,0.09,0.0,WeatherDisplay:10.37,2013-03-10 04:47:00,
2013-03-10 05:52:00,47.1,46.6,29.50,NNE,22,0.0,0.0,98,0.00,CLR,,0.09,0.0,WeatherDisplay:10.37,2013-03-10 04:52:00,
2013-03-10 05:57:00,46.9,46.4,29.50,NNE,22,0.0,0.0,98,0.00,CLR,,0.09,0.0,WeatherDisplay:10.37,2013-03-10 04:57:00,
2013-03-10 06:00:00,46.9,46.4,29.50,NNE,22,0.0,0.0,98,0.00,CLR,,0.09,0.0,WeatherDisplay:10.37,2013-03-10 05:00:00,
2013-03-10 06:05:00,46.9,46.4,29.50,North,0,0.0,0.0,98,0.00,OVC,,0.09,0.0,WeatherDisplay:10.37,2013-03-10 05:05:00,
2013-03-10 06:10:00,46.9,46.4,29.50,North,0,0.0,0.0,98,0.00,OVC,,0.09,0.0,WeatherDisplay:10.37,2013-03-10 05:10:00,
2013-03-10 06:15:00,46.9,46.4,29.50,North,0,0.0,0.0,98,0.00,OVC,,0.09,0.0,WeatherDisplay:10.37,2013-03-10 05:15:00,
2013-03-10 06:20:00,46.9,46.4,29.50,North,0,0.0,0.0,98,0.00,OVC,,0.09,0.0,WeatherDisplay:10.37,2013-03-10 05:20:00,
2013-03-10 06:25:00,46.9,46.4,29.50,WSW,248,0.0,0.0,98,0.00,OVC,,0.09,0.0,WeatherDisplay:10.37,2013-03-10 05:25:00,
2013-03-10 06:30:00,46.9,46.4,29.50,WSW,248,0.0,0.0,98,0.00,OVC,,0.09,0.0,WeatherDisplay:10.37,2013-03-10 05:30:00,
2013-03-10 06:35:00,46.9,46.4,29.50,WSW,248,0.0,0.0,98,0.00,OVC,,0.09,0.0,WeatherDisplay:10.37,2013-03-10 05:35:00,
2013-03-10 06:40:00,47.1,46.6,29.50,SSW,202,0.0,0.0,98,0.00,OVC,,0.09,0.0,WeatherDisplay:10.37,2013-03-10 05:40:00,
2013-03-10 06:45:00,47.1,46.6,29.50,SSW,202,0.0,0.0,98,0.00,OVC,,0.09,0.0,WeatherDisplay:10.37,2013-03-10 05:45:00,
2013-03-10 06:50:00,47.1,46.6,29.50,SSW,202,0.0,0.0,98,0.00,OVC,,0.09,0.0,WeatherDisplay:10.37,2013-03-10 05:50:00,
2013-03-10 06:55:00,47.1,46.6,29.50,WSW,248,0.0,0.0,98,0.00,OVC,,0.09,0.0,WeatherDisplay:10.37,2013-03-10 05:55:00,
2013-03-10 07:00:00,47.1,46.6,29.50,SSE,158,0.0,0.0,98,0.00,RA,,0.00,0.0,WeatherDisplay:10.37,2013-03-10 06:00:00,
2013-03-10 07:05:00,47.1,46.6,29.50,ESE,112,0.0,0.0,98,0.00,RA,,0.00,0.0,WeatherDisplay:10.37,2013-03-10 06:05:00,
2013-03-10 07:10:00,47.1,46.6,29.50,SSE,158,0.0,0.0,98,0.00,OVC,,0.00,0.0,WeatherDisplay:10.37,2013-03-10 06:10:00,
2013-03-10 07:15:00,47.1,46.6,29.50,SSW,202,0.0,0.0,98,0.00,OVC,,0.00,0.0,WeatherDisplay:10.37,2013-03-10 06:15:00,
2013-03-10 07:20:00,47.3,46.8,29.50,SSW,202,0.0,0.0,98,0.00,OVC,,0.00,0.0,WeatherDisplay:10.37,2013-03-10 06:20:00,
2013-03-10 07:25:00,47.3,46.8,29.50,SSW,202,0.0,0.0,98,0.00,OVC,,0.00,0.0,WeatherDisplay:10.37,2013-03-10 06:25:00,
2013-03-10 07:30:00,47.3,46.8,29.50,WSW,248,0.0,0.0,98,0.00,OVC,,0.00,0.0,WeatherDisplay:10.37,2013-03-10 06:30:00,
2013-03-10 07:35:00,47.3,46.8,29.50,SSW,202,0.0,0.0,98,0.00,OVC,,0.00,0.0,WeatherDisplay:10.37,2013-03-10 06:35:00,
2013-03-10 07:40:00,47.5,46.9,29.53,NNW,338,0.0,0.0,98,0.00,OVC,,0.00,0.0,WeatherDisplay:10.37,2013-03-10 06:40:00,
2013-03-10 07:45:00,47.5,46.9,29.53,SSE,158,0.0,0.0,98,0.00,OVC,,0.00,0.0,WeatherDisplay:10.37,2013-03-10 06:45:00,
2013-03-10 07:50:00,47.7,47.1,29.53,SSE,158,0.0,0.0,98,0.00,OVC,,0.00,0.0,WeatherDisplay:10.37,2013-03-10 06:50:00,
2013-03-10 07:55:00,47.7,47.1,29.47,NW,315,0.0,0.0,98,0.00,OVC,,0.00,0.0,WeatherDisplay:10.37,2013-03-10 06:55:00,
2013-03-10 08:00:00,47.7,47.1,29.47,SSW,202,1.6,1.6,98,0.00,OVC,,0.00,0.0,WeatherDisplay:10.37,2013-03-10 07:00:00,
2013-03-10 08:05:00,47.8,47.3,29.47,SSW,202,2.3,0.0,98,0.00,OVC,,0.00,0.0,WeatherDisplay:10.37,2013-03-10 07:05:00,
2013-03-10 08:10:00,47.7,47.1,29.50,South,180,0.0,0.0,98,0.00,OVC,,0.00,0.0,WeatherDisplay:10.37,2013-03-10 07:10:00,
2013-03-10 08:15:00,47.7,47.1,29.50,SSW,202,0.0,0.0,98,0.00,OVC,,0.00,0.0,WeatherDisplay:10.37,2013-03-10 07:15:00,
2013-03-10 08:20:00,47.7,47.1,29.50,WSW,248,3.5,3.5,98,0.00,OVC,,0.00,0.0,WeatherDisplay:10.37,2013-03-10 07:20:00,
2013-03-10 08:25:00,47.7,47.1,29.53,WSW,248,2.3,0.0,98,0.00,OVC,,0.00,0.0,WeatherDisplay:10.37,2013-03-10 07:25:00,
2013-03-10 08:30:00,47.7,47.1,29.53,SSW,202,1.2,0.0,98,0.00,OVC,,0.00,0.0,WeatherDisplay:10.37,2013-03-10 07:30:00,
2013-03-10 08:35:00,47.7,47.1,29.53,WSW,248,1.2,0.0,98,0.00,OVC,,0.00,0.0,WeatherDisplay:10.37,2013-03-10 07:35:00,
2013-03-10 08:40:00,47.8,47.3,29.50,West,270,2.3,2.3,98,0.00,OVC,,0.00,0.0,WeatherDisplay:10.37,2013-03-10 07:40:00,
2013-03-10 08:45:00,47.8,47.3,29.50,NW,315,0.0,0.0,98,0.00,OVC,,0.00,0.0,WeatherDisplay:10.37,2013-03-10 07:45:00,
2013-03-10 08:50:00,48.2,47.7,29.50,WNW,292,2.6,0.0,98,0.00,OVC,,0.00,0.0,WeatherDisplay:10.37,2013-03-10 07:50:00,
2013-03-10 08:55:00,48.2,47.7,29.53,WNW,292,2.9,2.9,98,0.00,OVC,,0.00,0.0,WeatherDisplay:10.37,2013-03-10 07:55:00,
2013-03-10 09:00:00,48.2,47.7,29.53,WNW,292,2.3,2.3,98,0.00,OVC,,0.00,0.0,WeatherDisplay:10.37,2013-03-10 08:00:00,
2013-03-10 09:05:00,48.2,47.7,29.53,WNW,292,2.2,2.2,98,0.00,OVC,,0.00,0.0,WeatherDisplay:10.37,2013-03-10 08:05:00,
2013-03-10 09:10:00,48.2,47.7,29.50,WSW,248,3.5,0.0,98,0.00,OVC,,0.00,0.0,WeatherDisplay:10.37,2013-03-10 08:10:00,
2013-03-10 09:15:00,48.2,47.7,29.50,NW,315,2.0,2.0,98,0.00,OVC,,0.00,0.0,WeatherDisplay:10.37,2013-03-10 08:15:00,
2013-03-10 09:20:00,48.2,47.7,29.50,WNW,292,2.4,0.0,98,0.00,OVC,,0.00,0.0,WeatherDisplay:10.37,2013-03-10 08:20:00,
2013-03-10 09:25:00,48.2,47.7,29.50,WNW,292,2.3,0.0,98,0.00,OVC,,0.00,0.0,WeatherDisplay:10.37,2013-03-10 08:25:00,
2013-03-10 09:30:00,48.2,47.7,29.50,WSW,248,2.0,2.0,98,0.00,OVC,,0.00,0.0,WeatherDisplay:10.37,2013-03-10 08:30:00,
2013-03-10 09:35:00,48.2,47.7,29.50,SSW,202,2.3,2.3,98,0.00,OVC,,0.00,0.0,WeatherDisplay:10.37,2013-03-10 08:35:00,
2013-03-10 09:40:00,48.4,47.8,29.50,West,270,2.3,0.0,98,0.00,OVC,,0.00,0.0,WeatherDisplay:10.37,2013-03-10 08:40:00,
2013-03-10 09:45:00,48.6,48.0,29.50,NW,315,1.2,1.4,98,0.00,OVC,,0.00,0.0,WeatherDisplay:10.37,2013-03-10 08:45:00,
2013-03-10 09:50:00,48.7,48.2,29.50,West,270,1.2,0.0,98,0.00,OVC,,0.00,0.0,WeatherDisplay:10.37,2013-03-10 08:50:00,
2013-03-10 09:55:00,48.7,48.2,29.50,SW,225,3.5,3.5,98,0.00,OVC,,0.00,0.0,WeatherDisplay:10.37,2013-03-10 08:55:00,
2013-03-10 10:00:00,48.9,48.4,29.50,NNW,338,1.2,0.0,98,0.00,OVC,,0.00,0.0,WeatherDisplay:10.37,2013-03-10 09:00:00,
2013-03-10 10:05:00,49.1,48.6,29.50,ENE,68,0.0,0.0,98,0.00,OVC,,0.00,0.0,WeatherDisplay:10.37,2013-03-10 09:05:00,
2013-03-10 10:10:00,49.5,48.9,29.47,WSW,248,2.3,2.3,98,0.00,OVC,,0.00,0.0,WeatherDisplay:10.37,2013-03-10 09:10:00,
2013-03-10 10:15:00,49.6,49.1,29.47,SSW,202,3.5,3.5,98,0.00,OVC,,0.00,0.0,WeatherDisplay:10.37,2013-03-10 09:15:00,
2013-03-10 10:20:00,49.6,49.1,29.47,SW,225,4.0,4.0,98,0.00,OVC,,0.00,0.0,WeatherDisplay:10.37,2013-03-10 09:20:00,
2013-03-10 10:25:00,49.8,49.3,29.50,WSW,248,2.6,2.6,98,0.00,OVC,,0.00,0.0,WeatherDisplay:10.37,2013-03-10 09:25:00,
2013-03-10 10:30:00,50.0,49.5,29.50,West,270,3.5,3.5,98,0.00,OVC,,0.00,0.0,WeatherDisplay:10.37,2013-03-10 09:30:00,
2013-03-10 10:35:00,50.0,49.5,29.50,SSW,202,3.5,3.5,98,0.00,OVC,,0.00,0.0,WeatherDisplay:10.37,2013-03-10 09:35:00,
2013-03-10 10:40:00,50.2,49.4,29.50,WSW,248,3.5,3.5,97,0.00,OVC,,0.00,0.0,WeatherDisplay:10.37,2013-03-10 09:40:00,
2013-03-10 10:45:00,50.5,49.7,29.50,WSW,248,5.4,5.4,97,0.00,OVC,,0.00,0.0,WeatherDisplay:10.37,2013-03-10 09:45:00,
2013-03-10 10:50:00,50.7,49.3,29.50,West,270,2.3,2.3,95,0.00,OVC,,0.00,0.0,WeatherDisplay:10.37,2013-03-10 09:50:00,
2013-03-10 10:55:00,50.9,49.5,29.50,WNW,292,3.6,3.6,95,0.00,OVC,,0.00,0.0,WeatherDisplay:10.37,2013-03-10 09:55:00,
2013-03-10 11:00:00,50.9,49.2,29.50,WSW,248,4.0,4.0,94,0.00,OVC,,0.00,0.0,WeatherDisplay:10.37,2013-03-10 10:00:00,
2013-03-10 11:05:00,50.7,48.2,29.50,NW,315,4.6,4.6,91,0.00,OVC,,0.00,0.0,WeatherDisplay:10.37,2013-03-10 10:05:00,
2013-03-10 11:10:00,50.9,48.7,29.50,WNW,292,5.8,5.8,92,0.00,OVC,,0.00,0.0,WeatherDisplay:10.37,2013-03-10 10:10:00,
2013-03-10 11:15:00,50.7,48.2,29.50,WSW,248,3.5,3.5,91,0.00,OVC,,0.00,0.0,WeatherDisplay:10.37,2013-03-10 10:15:00,
2013-03-10 11:20:00,50.9,48.7,29.50,SSW,202,3.5,0.0,92,0.00,OVC,,0.00,0.0,WeatherDisplay:10.37,2013-03-10 10:20:00,
2013-03-10 11:25:00,51.1,49.1,29.50,SSW,202,2.3,2.3,93,0.00,OVC,,0.00,0.0,WeatherDisplay:10.37,2013-03-10 10:25:00,
2013-03-10 11:30:00,51.1,48.8,29.50,WSW,248,3.5,3.5,92,0.00,OVC,,0.00,0.0,WeatherDisplay:10.37,2013-03-10 10:30:00,
2013-03-10 11:35:00,51.3,48.7,29.50,WNW,292,2.3,0.0,91,0.00,OVC,,0.00,0.0,WeatherDisplay:10.37,2013-03-10 10:35:00,
2013-03-10 11:40:00,51.4,48.9,29.50,NNW,338,2.4,2.4,91,0.00,OVC,,0.00,0.0,WeatherDisplay:10.37,2013-03-10 10:40:00,
2013-03-10 11:45:00,51.4,48.6,29.50,WSW,248,3.6,3.6,90,0.00,OVC,,0.00,0.0,WeatherDisplay:10.37,2013-03-10 10:45:00,
2013-03-10 11:50:00,51.8,48.4,29.50,NW,315,4.6,4.6,88,0.00,OVC,,0.00,0.0,WeatherDisplay:10.37,2013-03-10 10:50:00,
2013-03-10 11:55:00,52.3,48.0,29.47,WSW,248,3.5,3.5,85,0.00,OVC,,0.00,0.0,WeatherDisplay:10.37,2013-03-10 10:55:00,
2013-03-10 12:00:00,52.9,48.8,29.47,SSW,202,2.6,2.6,86,0.00,OVC,,0.00,0.0,WeatherDisplay:10.37,2013-03-10 11:00:00,
2013-03-10 12:05:00,53.2,48.8,29.47,WSW,248,3.8,3.8,85,0.00,OVC,,0.00,0.0,WeatherDisplay:10.37,2013-03-10 11:05:00,
2013-03-10 12:10:00,53.4,48.4,29.47,WSW,248,4.6,4.6,83,0.00,OVC,,0.00,0.0,WeatherDisplay:10.37,2013-03-10 11:10:00,
2013-03-10 12:15:00,53.4,47.4,29.47,WSW,248,4.6,4.6,80,0.00,OVC,,0.00,0.0,WeatherDisplay:10.37,2013-03-10 11:15:00,
2013-03-10 12:20:00,53.6,47.9,29.47,ENE,68,3.5,3.5,81,0.00,OVC,,0.00,0.0,WeatherDisplay:10.37,2013-03-10 11:20:00,
2013-03-10 12:25:00,53.6,46.6,29.50,SSW,202,3.8,4.9,77,0.00,OVC,,0.00,0.0,WeatherDisplay:10.37,2013-03-10 11:25:00,
2013-03-10 12:30:00,53.4,46.0,29.50,West,270,3.5,3.5,76,0.00,OVC,,0.00,0.0,WeatherDisplay:10.37,2013-03-10 11:30:00,
2013-03-10 12:35:00,53.6,48.6,29.50,WSW,248,5.8,5.8,83,0.00,OVC,,0.00,0.0,WeatherDisplay:10.37,2013-03-10 11:35:00,
2013-03-10 12:40:00,53.8,48.1,29.50,SW,225,2.3,2.3,81,0.00,OVC,,0.00,0.0,WeatherDisplay:10.37,2013-03-10 11:40:00,
2013-03-10 12:45:00,54.1,48.1,29.50,WSW,248,3.5,3.5,80,0.00,OVC,,0.00,0.0,WeatherDisplay:10.37,2013-03-10 11:45:00,
2013-03-10 12:50:00,54.3,48.6,29.50,WSW,248,3.8,3.8,81,0.00,OVC,,0.00,0.0,WeatherDisplay:10.37,2013-03-10 11:50:00,
2013-03-10 12:55:00,54.5,48.8,29.50,North,0,4.6,4.6,81,0.00,OVC,,0.00,0.0,WeatherDisplay:10.37,2013-03-10 11:55:00,
2013-03-10 13:00:00,54.7,48.6,29.50,NNW,338,4.0,4.0,80,0.00,OVC,,0.00,0.0,WeatherDisplay:10.37,2013-03-10 12:00:00,
2013-03-10 13:05:00,54.9,47.8,29.50,WNW,292,4.0,4.3,77,0.00,OVC,,0.00,0.0,WeatherDisplay:10.37,2013-03-10 12:05:00,
2013-03-10 13:10:00,54.9,47.4,29.50,NNW,338,4.5,4.5,76,0.00,OVC,,0.00,0.0,WeatherDisplay:10.37,2013-03-10 12:10:00,
2013-03-10 13:15:00,54.9,46.7,29.50,SSW,202,2.3,2.3,74,0.00,OVC,,0.00,0.0,WeatherDisplay:10.37,2013-03-10 12:15:00,
2013-03-10 13:20:00,54.7,46.6,29.50,West,270,3.5,3.5,74,0.00,OVC,,0.00,0.0,WeatherDisplay:10.37,2013-03-10 12:20:00,
2013-03-10 13:25:00,54.7,47.6,29.47,West,270,4.6,4.6,77,0.00,OVC,,0.00,0.0,WeatherDisplay:10.37,2013-03-10 12:25:00,
2013-03-10 13:30:00,54.5,47.1,29.47,WNW,292,4.6,4.6,76,0.00,OVC,,0.00,0.0,WeatherDisplay:10.37,2013-03-10 12:30:00,
2013-03-10 13:35:00,54.5,46.7,29.47,WSW,248,4.6,4.6,75,0.00,OVC,,0.00,0.0,WeatherDisplay:10.37,2013-03-10 12:35:00,
2013-03-10 13:40:00,54.5,46.7,29.47,West,270,5.8,5.8,75,0.00,OVC,,0.00,0.0,WeatherDisplay:10.37,2013-03-10 12:40:00,
2013-03-10 13:45:00,54.3,46.6,29.47,WNW,292,3.5,3.5,75,0.00,OVC,,0.00,0.0,WeatherDisplay:10.37,2013-03-10 12:45:00,
2013-03-10 13:50:00,54.1,46.0,29.47,SSW,202,5.8,5.8,74,0.00,OVC,,0.00,0.0,WeatherDisplay:10.37,2013-03-10 12:50:00,
2013-03-10 13:55:00,54.1,46.7,29.47,WNW,292,2.0,0.0,76,0.00,OVC,,0.00,0.0,WeatherDisplay:10.37,2013-03-10 12:55:00,
2013-03-10 14:00:00,54.3,46.2,29.47,WNW,292,3.5,3.5,74,0.00,OVC,,0.00,0.0,WeatherDisplay:10.37,2013-03-10 13:00:00,
2013-03-10 14:05:00,54.3,46.6,29.47,WNW,292,5.8,5.8,75,0.00,OVC,,0.00,0.0,WeatherDisplay:10.37,2013-03-10 13:05:00,
2013-03-10 14:10:00,54.1,46.0,29.47,NW,315,5.8,5.8,74,0.00,OVC,,0.00,0.0,WeatherDisplay:10.37,2013-03-10 13:10:00,
2013-03-10 14:15:00,54.1,46.0,29.47,NNW,338,3.5,3.5,74,0.00,OVC,,0.00,0.0,WeatherDisplay:10.37,2013-03-10 13:15:00,
2013-03-10 14:20:00,54.1,46.4,29.47,West,270,5.8,5.8,75,0.00,OVC,,0.00,0.0,WeatherDisplay:10.37,2013-03-10 13:20:00,
2013-03-10 14:25:00,54.1,46.4,29.47,NNW,338,5.8,5.8,75,0.00,OVC,,0.00,0.0,WeatherDisplay:10.37,2013-03-10 13:25:00,
2013-03-10 14:30:00,54.1,46.0,29.47,WNW,292,3.5,3.6,74,0.00,OVC,,0.00,0.0,WeatherDisplay:10.37,2013-03-10 13:30:00,
2013-03-10 14:35:00,54.1,46.4,29.47,WNW,292,3.5,3.5,75,0.00,OVC,,0.00,0.0,WeatherDisplay:10.37,2013-03-10 13:35:00,
2013-03-10 14:40:00,54.1,46.4,29.47,WNW,292,4.6,4.6,75,0.00,OVC,,0.00,0.0,WeatherDisplay:10.37,2013-03-10 13:40:00,
2013-03-10 14:45:00,54.0,46.2,29.47,WNW,292,4.6,4.6,75,0.00,OVC,,0.00,0.0,WeatherDisplay:10.37,2013-03-10 13:45:00,
2013-03-10 14:50:00,54.0,46.2,29.47,NNE,22,2.3,2.6,75,0.00,OVC,,0.00,0.0,WeatherDisplay:10.37,2013-03-10 13:50:00,
2013-03-10 14:55:00,54.0,46.2,29.47,WNW,292,3.5,3.5,75,0.00,OVC,,0.00,0.0,WeatherDisplay:10.37,2013-03-10 13:55:00,
2013-03-10 15:00:00,54.0,45.9,29.47,WNW,292,3.3,3.6,74,0.00,OVC,,0.00,0.0,WeatherDisplay:10.37,2013-03-10 14:00:00,
2013-03-10 15:05:00,53.8,45.7,29.47,WNW,292,5.8,5.8,74,0.00,OVC,,0.00,0.0,WeatherDisplay:10.37,2013-03-10 14:05:00,
2013-03-10 15:10:00,53.6,45.5,29.44,NNW,338,4.6,4.6,74,0.00,OVC,,0.00,0.0,WeatherDisplay:10.37,2013-03-10 14:10:00,
2013-03-10 15:15:00,53.4,45.7,29.44,NW,315,2.9,2.9,75,0.00,OVC,,0.00,0.0,WeatherDisplay:10.37,2013-03-10 14:15:00,
2013-03-10 15:20:00,53.4,45.7,29.44,NW,315,3.1,3.1,75,0.00,OVC,,0.00,0.0,WeatherDisplay:10.37,2013-03-10 14:20:00,
2013-03-10 15:25:00,53.4,45.3,29.44,NNW,338,2.3,2.3,74,0.00,OVC,,0.00,0.0,WeatherDisplay:10.37,2013-03-10 14:25:00,
2013-03-10 15:30:00,53.6,45.5,29.44,NNW,338,4.9,4.9,74,0.00,OVC,,0.00,0.0,WeatherDisplay:10.37,2013-03-10 14:30:00,
2013-03-10 15:35:00,53.6,45.2,29.44,NNW,338,4.6,4.6,73,0.00,OVC,,0.00,0.0,WeatherDisplay:10.37,2013-03-10 14:35:00,
2013-03-10 15:40:00,53.8,45.7,29.44,NNE,22,4.6,4.6,74,0.00,OVC,,0.00,0.0,WeatherDisplay:10.37,2013-03-10 14:40:00,
2013-03-10 15:45:00,53.6,44.8,29.44,NNW,338,3.6,3.6,72,0.00,OVC,,0.00,0.0,WeatherDisplay:10.37,2013-03-10 14:45:00,
2013-03-10 15:50:00,53.6,44.8,29.44,NNW,338,3.5,3.5,72,0.00,OVC,,0.00,0.0,WeatherDisplay:10.37,2013-03-10 14:50:00,
2013-03-10 15:55:00,53.4,45.3,29.44,NNW,338,4.0,4.0,74,0.00,OVC,,0.00,0.0,WeatherDisplay:10.37,2013-03-10 14:55:00,
2013-03-10 16:01:00,53.4,45.7,29.44,NNW,338,1.4,1.4,75,0.00,OVC,,0.00,0.0,WeatherDisplay:10.37,2013-03-10 15:01:00,
2013-03-10 16:06:00,53.2,45.2,29.44,NNW,338,2.4,2.4,74,0.00,OVC,,0.00,0.0,WeatherDisplay:10.37,2013-03-10 15:06:00,
2013-03-10 16:11:00,53.2,45.2,29.44,NNW,338,3.5,3.5,74,0.00,OVC,,0.00,0.0,WeatherDisplay:10.37,2013-03-10 15:11:00,
2013-03-10 16:16:00,53.2,45.2,29.44,WNW,292,3.6,3.6,74,0.00,OVC,,0.00,0.0,WeatherDisplay:10.37,2013-03-10 15:16:00,
2013-03-10 16:21:00,53.2,45.2,29.44,WNW,292,2.3,2.3,74,0.00,OVC,,0.00,0.0,WeatherDisplay:10.37,2013-03-10 15:21:00,
2013-03-10 16:26:00,53.1,45.3,29.44,WNW,292,2.4,2.4,75,0.00,OVC,,0.00,0.0,WeatherDisplay:10.37,2013-03-10 15:26:00,
2013-03-10 16:31:00,53.1,45.3,29.44,West,270,2.3,2.3,75,0.00,OVC,,0.00,0.0,WeatherDisplay:10.37,2013-03-10 15:31:00,
2013-03-10 16:36:00,53.1,45.3,29.44,NNW,338,2.3,2.3,75,0.00,OVC,,0.00,0.0,WeatherDisplay:10.37,2013-03-10 15:36:00,
2013-03-10 16:41:00,53.1,45.3,29.47,WNW,292,0.0,0.0,75,0.00,OVC,,0.00,0.0,WeatherDisplay:10.37,2013-03-10 15:41:00,
2013-03-10 16:46:00,52.9,45.2,29.47,WNW,292,0.0,0.0,75,0.00,OVC,,0.00,0.0,WeatherDisplay:10.37,2013-03-10 15:46:00,
2013-03-10 16:51:00,52.9,45.2,29.47,WSW,248,0.0,0.0,75,0.00,OVC,,0.00,0.0,WeatherDisplay:10.37,2013-03-10 15:51:00,
2013-03-10 16:56:00,52.9,45.2,29.41,WNW,292,0.0,0.0,75,0.00,OVC,,0.00,0.0,WeatherDisplay:10.37,2013-03-10 15:56:00,
2013-03-10 17:01:00,52.7,45.3,29.41,WNW,292,0.0,0.0,76,0.00,OVC,,0.00,0.0,WeatherDisplay:10.37,2013-03-10 16:01:00,
2013-03-10 17:06:00,52.7,45.3,29.41,West,270,0.0,0.0,76,0.00,OVC,,0.00,0.0,WeatherDisplay:10.37,2013-03-10 16:06:00,
2013-03-10 17:11:00,52.5,45.2,29.41,WNW,292,0.0,0.0,76,0.00,OVC,,0.00,0.0,WeatherDisplay:10.37,2013-03-10 16:11:00,
2013-03-10 17:16:00,52.5,45.2,29.44,WNW,292,0.0,0.0,76,0.00,OVC,,0.00,21.6,WeatherDisplay:10.37,2013-03-10 16:16:00,
2013-03-10 17:21:00,52.3,45.0,29.44,WNW,292,0.0,0.0,76,0.00,OVC,,0.00,19.0,WeatherDisplay:10.37,2013-03-10 16:21:00,
2013-03-10 17:26:00,52.2,45.5,29.47,WNW,292,0.0,0.0,78,0.00,OVC,,0.00,16.8,WeatherDisplay:10.37,2013-03-10 16:26:00,
2013-03-10 17:31:00,52.0,45.0,29.47,WNW,292,0.0,0.0,77,0.00,OVC,,0.00,14.2,WeatherDisplay:10.37,2013-03-10 16:31:00,
2013-03-10 17:36:00,52.0,45.3,29.47,WNW,292,0.0,0.0,78,0.00,OVC,,0.00,11.4,WeatherDisplay:10.37,2013-03-10 16:36:00,
2013-03-10 17:43:00,51.6,45.0,29.47,WNW,292,0.0,0.0,78,0.00,OVC,,0.00,7.3,WeatherDisplay:10.37,2013-03-10 16:43:00,
2013-03-10 17:48:00,51.6,45.3,29.47,WNW,292,0.0,0.0,79,0.00,OVC,,0.00,4.6,WeatherDisplay:10.37,2013-03-10 16:48:00,
2013-03-10 17:53:00,51.4,45.1,29.47,WNW,292,0.0,0.0,79,0.00,OVC,,0.00,2.0,WeatherDisplay:10.37,2013-03-10 16:53:00,
2013-03-10 17:58:00,51.3,45.0,29.47,WNW,292,0.0,0.0,79,0.00,OVC,,0.00,0.8,WeatherDisplay:10.37,2013-03-10 16:58:00,
2013-03-10 18:03:00,51.3,45.0,29.47,WNW,292,0.0,0.0,79,0.00,CLR,,0.00,0.0,WeatherDisplay:10.37,2013-03-10 17:03:00,
2013-03-10 18:08:00,51.1,45.1,29.47,WNW,292,0.0,0.0,80,0.00,CLR,,0.00,0.0,WeatherDisplay:10.37,2013-03-10 17:08:00,
2013-03-10 18:13:00,51.1,45.5,29.47,WNW,292,0.0,0.0,81,0.00,CLR,,0.00,0.0,WeatherDisplay:10.37,2013-03-10 17:13:00,
2013-03-10 18:18:00,50.9,45.3,29.47,WNW,292,0.0,0.0,81,0.00,CLR,,0.00,0.0,WeatherDisplay:10.37,2013-03-10 17:18:00,
2013-03-10 18:23:00,50.9,45.6,29.47,WNW,292,0.0,0.0,82,0.00,CLR,,0.00,0.0,WeatherDisplay:10.37,2013-03-10 17:23:00,
2013-03-10 18:28:00,50.7,45.4,29.47,WNW,292,0.0,0.0,82,0.00,CLR,,0.00,0.0,WeatherDisplay:10.37,2013-03-10 17:28:00,
2013-03-10 18:33:00,50.7,45.7,29.47,WNW,292,0.0,0.0,83,0.00,CLR,,0.00,0.0,WeatherDisplay:10.37,2013-03-10 17:33:00,
2013-03-10 18:38:00,50.5,45.6,29.50,WNW,292,0.0,0.0,83,0.00,CLR,,0.00,0.0,WeatherDisplay:10.37,2013-03-10 17:38:00,
2013-03-10 18:43:00,50.5,45.9,29.50,WNW,292,0.0,0.0,84,0.00,CLR,,0.00,0.0,WeatherDisplay:10.37,2013-03-10 17:43:00,
2013-03-10 18:48:00,50.4,45.7,29.50,SSE,158,0.0,0.0,84,0.00,CLR,,0.00,0.0,WeatherDisplay:10.37,2013-03-10 17:48:00,
2013-03-10 18:53:00,50.2,45.8,29.50,SSW,202,0.0,0.0,85,0.00,CLR,,0.00,0.0,WeatherDisplay:10.37,2013-03-10 17:53:00,
2013-03-10 18:58:00,50.2,46.2,29.50,WSW,248,0.0,0.0,86,0.00,CLR,,0.00,0.0,WeatherDisplay:10.37,2013-03-10 17:58:00,
2013-03-10 19:04:00,50.2,46.2,29.50,SSW,202,0.0,0.0,86,0.00,RA,,0.00,0.0,WeatherDisplay:10.37,2013-03-10 18:04:00,
2013-03-10 19:09:00,50.0,46.3,29.50,ESE,112,2.9,2.9,87,0.00,,,0.00,0.0,WeatherDisplay:10.37,2013-03-10 18:09:00,
2013-03-10 19:14:00,49.8,46.1,29.50,SSW,202,2.3,0.0,87,0.00,CLR,,0.00,0.0,WeatherDisplay:10.37,2013-03-10 18:14:00,
2013-03-10 19:19:00,49.8,46.4,29.50,WSW,248,0.0,0.0,88,0.00,CLR,,0.00,0.0,WeatherDisplay:10.37,2013-03-10 18:19:00,
2013-03-10 19:24:00,49.6,47.1,29.50,WSW,248,2.3,2.3,91,0.00,CLR,,0.00,0.0,WeatherDisplay:10.37,2013-03-10 18:24:00,
2013-03-10 19:29:00,49.6,46.8,29.50,WSW,248,0.0,0.0,90,0.00,CLR,,0.00,0.0,WeatherDisplay:10.37,2013-03-10 18:29:00,
2013-03-10 19:34:00,49.5,46.6,29.50,ENE,68,0.0,0.0,90,0.00,CLR,,0.00,0.0,WeatherDisplay:10.37,2013-03-10 18:34:00,
2013-03-10 19:39:00,49.3,46.5,29.47,ENE,68,0.0,0.0,90,0.00,CLR,,0.00,0.0,WeatherDisplay:10.37,2013-03-10 18:39:00,
2013-03-10 19:44:00,49.3,46.8,29.47,ENE,68,5.8,5.8,91,0.00,CLR,,0.00,0.0,WeatherDisplay:10.37,2013-03-10 18:44:00,
2013-03-10 19:49:00,49.1,45.4,29.47,NNE,22,6.9,6.9,87,0.00,CLR,,0.00,0.0,WeatherDisplay:10.37,2013-03-10 18:49:00,
2013-03-10 19:54:00,48.7,44.4,29.44,NNE,22,8.1,8.1,85,0.00,CLR,,0.00,0.0,WeatherDisplay:10.37,2013-03-10 18:54:00,
2013-03-10 19:59:00,48.7,44.1,29.44,North,0,8.1,8.1,84,0.00,CLR,,0.00,0.0,WeatherDisplay:10.37,2013-03-10 18:59:00,
2013-03-10 20:04:00,48.6,43.9,29.44,NNE,22,8.1,8.1,84,0.00,CLR,,0.00,0.0,WeatherDisplay:10.37,2013-03-10 19:04:00,
2013-03-10 20:09:00,48.6,43.6,29.47,North,0,4.6,4.6,83,0.00,CLR,,0.00,0.0,WeatherDisplay:10.37,2013-03-10 19:09:00,
2013-03-10 20:14:00,48.4,43.5,29.47,NNE,22,6.9,6.9,83,0.00,RA,,0.01,0.0,WeatherDisplay:10.37,2013-03-10 19:14:00,
2013-03-10 20:19:00,48.2,43.6,29.47,NNE,22,5.8,5.8,84,0.01,RA,,0.01,0.0,WeatherDisplay:10.37,2013-03-10 19:19:00,
2013-03-10 20:24:00,47.8,43.5,29.50,North,0,4.6,4.6,85,0.01,RA,,0.02,0.0,WeatherDisplay:10.37,2013-03-10 19:24:00,
2013-03-10 20:29:00,47.7,43.7,29.50,NNE,22,4.6,4.6,86,0.02,RA,,0.02,0.0,WeatherDisplay:10.37,2013-03-10 19:29:00,
2013-03-10 20:34:00,47.5,43.8,29.50,NNE,22,6.9,6.9,87,0.02,RA,,0.02,0.0,WeatherDisplay:10.37,2013-03-10 19:34:00,
2013-03-10 20:39:00,47.3,43.6,29.50,NNE,22,3.6,3.6,87,0.02,CLR,,0.02,0.0,WeatherDisplay:10.37,2013-03-10 19:39:00,
2013-03-10 20:44:00,47.3,43.6,29.50,NNW,338,4.6,4.6,87,0.02,RA,,0.02,0.0,WeatherDisplay:10.37,2013-03-10 19:44:00,
2013-03-10 20:49:00,47.1,43.7,29.50,ESE,112,5.8,5.8,88,0.02,RA,,0.02,0.0,WeatherDisplay:10.37,2013-03-10 19:49:00,
2013-03-10 20:54:00,47.1,43.7,29.47,ENE,68,4.6,4.6,88,0.02,CLR,,0.02,0.0,WeatherDisplay:10.37,2013-03-10 19:54:00,
2013-03-10 20:59:00,47.1,43.7,29.47,NNE,22,3.5,3.5,88,0.02,CLR,,0.02,0.0,WeatherDisplay:10.37,2013-03-10 19:59:00,
2013-03-10 21:04:00,47.1,43.7,29.47,NNW,338,5.8,5.8,88,0.02,CLR,,0.02,0.0,WeatherDisplay:10.37,2013-03-10 20:04:00,
2013-03-10 21:09:00,46.9,43.6,29.50,NNW,338,5.8,5.8,88,0.02,CLR,,0.02,0.0,WeatherDisplay:10.37,2013-03-10 20:09:00,
2013-03-10 21:14:00,46.9,43.6,29.50,NNE,22,3.5,3.5,88,0.02,CLR,,0.02,0.0,WeatherDisplay:10.37,2013-03-10 20:14:00,
2013-03-10 21:19:00,46.9,43.9,29.50,NE,45,5.9,5.9,89,0.01,CLR,,0.02,0.0,WeatherDisplay:10.37,2013-03-10 20:19:00,
2013-03-10 21:24:00,46.9,43.9,29.50,East,90,3.5,3.5,89,0.01,CLR,,0.02,0.0,WeatherDisplay:10.37,2013-03-10 20:24:00,
2013-03-10 21:29:00,46.8,43.7,29.50,NNW,338,3.5,3.5,89,0.00,CLR,,0.02,0.0,WeatherDisplay:10.37,2013-03-10 20:29:00,
2013-03-10 21:34:00,46.8,43.7,29.50,NW,315,3.1,3.1,89,0.00,CLR,,0.02,0.0,WeatherDisplay:10.37,2013-03-10 20:34:00,
2013-03-10 21:39:00,46.8,44.0,29.50,NNE,22,3.5,3.5,90,0.00,CLR,,0.02,0.0,WeatherDisplay:10.37,2013-03-10 20:39:00,
2013-03-10 21:44:00,46.8,44.0,29.50,NNW,338,3.5,3.5,90,0.00,CLR,,0.02,0.0,WeatherDisplay:10.37,2013-03-10 20:44:00,
2013-03-10 21:49:00,46.6,44.1,29.50,NNW,338,2.2,2.2,91,0.00,CLR,,0.02,0.0,WeatherDisplay:10.37,2013-03-10 20:49:00,
2013-03-10 21:54:00,46.6,44.1,29.47,West,270,2.3,2.3,91,0.00,RA,,0.03,0.0,WeatherDisplay:10.37,2013-03-10 20:54:00,
2013-03-10 21:59:00,46.4,43.9,29.47,NNE,22,2.6,2.6,91,0.00,RA,,0.03,0.0,WeatherDisplay:10.37,2013-03-10 20:59:00,
2013-03-10 22:04:00,46.4,43.9,29.47,WNW,292,0.0,0.0,91,0.00,CLR,,0.03,0.0,WeatherDisplay:10.37,2013-03-10 21:04:00,
2013-03-10 22:09:00,46.2,44.0,29.53,NNW,338,2.3,2.3,92,0.00,CLR,,0.03,0.0,WeatherDisplay:10.37,2013-03-10 21:09:00,
2013-03-10 22:14:00,46.2,44.0,29.53,NNW,338,1.6,1.6,92,0.00,CLR,,0.03,0.0,WeatherDisplay:10.37,2013-03-10 21:14:00,
2013-03-10 22:19:00,46.2,44.3,29.53,NNE,22,2.3,2.3,93,0.00,CLR,,0.03,0.0,WeatherDisplay:10.37,2013-03-10 21:19:00,
2013-03-10 22:24:00,46.0,44.1,29.50,NNE,22,2.9,2.9,93,0.00,CLR,,0.03,0.0,WeatherDisplay:10.37,2013-03-10 21:24:00,
2013-03-10 22:29:00,46.0,44.1,29.50,NNW,338,5.9,5.9,93,0.00,CLR,,0.03,0.0,WeatherDisplay:10.37,2013-03-10 21:29:00,
2013-03-10 22:34:00,46.0,44.1,29.50,NNW,338,3.5,3.5,93,0.00,CLR,,0.03,0.0,WeatherDisplay:10.37,2013-03-10 21:34:00,
2013-03-10 22:39:00,45.9,44.2,29.50,NNW,338,3.5,3.5,94,0.00,CLR,,0.03,0.0,WeatherDisplay:10.37,2013-03-10 21:39:00,
2013-03-10 22:44:00,45.9,44.2,29.50,NW,315,3.5,3.5,94,0.00,CLR,,0.03,0.0,WeatherDisplay:10.37,2013-03-10 21:44:00,
2013-03-10 22:49:00,45.9,44.2,29.50,NW,315,4.6,4.6,94,0.00,CLR,,0.03,0.0,WeatherDisplay:10.37,2013-03-10 21:49:00,
2013-03-10 22:54:00,45.9,44.2,29.50,North,0,5.4,5.4,94,0.00,CLR,,0.03,0.0,WeatherDisplay:10.37,2013-03-10 21:54:00,
2013-03-10 22:59:00,45.9,44.2,29.50,WNW,292,4.6,4.6,94,0.00,CLR,,0.03,0.0,WeatherDisplay:10.37,2013-03-10 21:59:00,
2013-03-10 23:04:00,45.7,43.8,29.50,WNW,292,4.6,4.6,93,0.00,CLR,,0.03,0.0,WeatherDisplay:10.37,2013-03-10 22:04:00,
2013-03-10 23:09:00,45.9,44.2,29.53,North,0,6.9,6.9,94,0.00,CLR,,0.03,0.0,WeatherDisplay:10.37,2013-03-10 22:09:00,
2013-03-10 23:14:00,45.9,44.2,29.53,WNW,292,4.6,4.6,94,0.00,CLR,,0.03,0.0,WeatherDisplay:10.37,2013-03-10 22:14:00,
2013-03-10 23:19:00,45.7,43.8,29.53,NW,315,3.5,3.6,93,0.00,CLR,,0.03,0.0,WeatherDisplay:10.37,2013-03-10 22:19:00,
2013-03-10 23:24:00,45.7,44.1,29.53,NNW,338,4.6,4.6,94,0.00,CLR,,0.03,0.0,WeatherDisplay:10.37,2013-03-10 22:24:00,
2013-03-10 23:29:00,45.7,44.1,29.53,NNW,338,4.6,4.6,94,0.00,CLR,,0.03,0.0,WeatherDisplay:10.37,2013-03-10 22:29:00,
2013-03-10 23:34:00,45.7,43.8,29.53,NNE,22,4.6,4.6,93,0.00,CLR,,0.03,0.0,WeatherDisplay:10.37,2013-03-10 22:34:00,
2013-03-10 23:39:00,45.7,43.8,29.53,NNW,338,3.5,3.5,93,0.00,CLR,,0.03,0.0,WeatherDisplay:10.37,2013-03-10 22:39:00,
2013-03-10 23:44:00,45.7,43.8,29.53,NNE,22,3.5,3.5,93,0.00,CLR,,0.03,0.0,WeatherDisplay:10.37,2013-03-10 22:44:00,
2013-03-10 23:49:00,45.7,43.8,29.53,West,270,3.5,3.5,93,0.00,CLR,,0.03,0.0,WeatherDisplay:10.37,2013-03-10 22:49:00,
2013-03-10 23:54:00,45.7,43.8,29.47,WNW,292,3.5,3.5,93,0.00,CLR,,0.03,0.0,WeatherDisplay:10.37,2013-03-10 22:54:00,
2013-03-10 23:59:00,45.7,43.8,29.47,WNW,292,3.5,3.5,93,0.00,CLR,,0.03,0.0,WeatherDisplay:10.37,2013-03-10 22:59:00,